Weather History for Hollywood, FL

Change the Weather History Date:

Friday, November 16, 2012

  Actual Average (KFLL) Record (KFLL)
Temperature  
Mean Temperature 72 °F 75 °F  
Max Temperature 79 °F 82 °F 89 °F (1951)
Min Temperature 64 °F 69 °F 48 °F (1969)
Degree Days  
Heating Degree Days 0 0  
Month to date heating degree days 0  
Since 1 July heating degree days 0  
Cooling Degree Days 6 10  
Month to date cooling degree days 186  
Year to date cooling degree days 4380  
Growing Degree Days 22 (Base 50)    
Moisture  
Dew Point 64 °F    
Average Humidity 83    
Maximum Humidity 94    
Minimum Humidity 56    
Precipitation  
Precipitation 0.00 in 0.09 in 2.78 in (1994)
Month to date precipitation 2.01  
Year to date precipitation 58.49  
Snow  
Snow 0.00 in - - ()
Month to date snowfall  
Since 1 July snowfall  
Since 1 September snowfall  
Snow Depth -    
Sea Level Pressure  
Sea Level Pressure 30.09 in    
Wind  
Wind Speed 8 mph (North)    
Max Wind Speed 12 mph    
Max Gust Speed -    
Visibility 8 miles    
Events Rain    
T = Trace of Precipitation, MM = Missing Value Source: NWS Daily Summary

Daily Weather History Graph

Daily Weather History Graph

Search for Another Location

Airport:

Trip Planner

Search our weather history database for the weather conditions in past years. The results will help you decide how hot, cold, wet, or windy it might be!

Date:

Astronomy

Nov. 16, 2012 Rise Set
Actual Time 6:40 AM EST 5:31 PM EST
Civil Twilight 6:15 AM EST 5:55 PM EST
Nautical Twilight 5:47 AM EST 6:23 PM EST
Astronomical Twilight 5:20 AM EST 6:50 PM EST
Moon 9:28 AM EST (11/16) 8:32 PM EST (11/16)
Length of Visible Light 11h 39m
Length of Day
10h 50m
Waxing Crescent, 11% of the Moon is Illuminated
Nov 16
Waxing Crescent
Nov 20
First Quarter
Nov 28
Full
Dec 6
Last Quarter
Dec 13
New

Hourly Weather History & Observations

Time (EST) Temp. Dew Point Humidity Pressure Visibility Wind Dir Wind Speed Gust Speed Precip Events Conditions
12:53 AM 68.0 °F 64.0 °F 87% 30.08 in 8.0 mi NNW 6.9 mph - N/A   Mostly Cloudy
1:53 AM 68.0 °F 64.9 °F 90% 30.07 in 7.0 mi NNW 9.2 mph - N/A   Overcast
2:53 AM 66.9 °F 64.0 °F 90% 30.08 in 6.0 mi NNW 9.2 mph - N/A   Overcast
3:53 AM 66.0 °F 63.0 °F 90% 30.07 in 7.0 mi NNW 8.1 mph - N/A   Overcast
4:53 AM 64.9 °F 63.0 °F 93% 30.08 in 6.0 mi NNW 8.1 mph - N/A   Overcast
5:33 AM 64.4 °F 62.6 °F 94% 30.09 in 6.0 mi NNW 8.1 mph - N/A   Overcast
5:53 AM 64.9 °F 63.0 °F 93% 30.09 in 6.0 mi NNW 6.9 mph - N/A   Overcast
6:11 AM 64.4 °F 62.6 °F 94% 30.09 in 6.0 mi NNW 9.2 mph - N/A   Overcast
6:25 AM 64.4 °F 62.6 °F 94% 30.10 in 6.0 mi North 9.2 mph - N/A   Overcast
6:53 AM 64.9 °F 63.0 °F 93% 30.10 in 6.0 mi North 10.4 mph - N/A   Overcast
7:53 AM 64.9 °F 63.0 °F 93% 30.11 in 5.0 mi North 9.2 mph - N/A   Overcast
8:53 AM 69.1 °F 64.0 °F 84% 30.13 in 6.0 mi North 8.1 mph - N/A   Haze
9:04 AM 69.8 °F 64.4 °F 83% 30.13 in 6.0 mi North 11.5 mph - N/A   Haze
9:15 AM 71.6 °F 64.4 °F 78% 30.13 in 7.0 mi North 6.9 mph - N/A   Overcast
9:53 AM 71.1 °F 64.0 °F 78% 30.13 in 8.0 mi NNW 9.2 mph - N/A   Overcast
10:53 AM 72.0 °F 64.0 °F 76% 30.12 in 8.0 mi North 6.9 mph - N/A   Overcast
11:53 AM 75.0 °F 64.9 °F 71% 30.10 in 9.0 mi North 6.9 mph - N/A   Overcast
12:53 PM 75.9 °F 64.9 °F 69% 30.07 in 10.0 mi North 6.9 mph - N/A   Overcast
1:53 PM 77.0 °F 64.9 °F 66% 30.06 in 10.0 mi NNW 6.9 mph - N/A   Overcast
2:53 PM 78.1 °F 64.9 °F 64% 30.05 in 10.0 mi NE 9.2 mph - N/A   Mostly Cloudy
3:53 PM 79.0 °F 62.1 °F 56% 30.04 in 10.0 mi Variable 5.8 mph - N/A   Scattered Clouds
4:53 PM 75.0 °F 64.0 °F 69% 30.05 in 10.0 mi ENE 4.6 mph - N/A   Clear
5:53 PM 73.9 °F 64.0 °F 71% 30.05 in 10.0 mi NE 5.8 mph - N/A   Clear
6:53 PM 73.0 °F 64.9 °F 76% 30.07 in 10.0 mi NNE 4.6 mph - N/A   Scattered Clouds
7:53 PM 72.0 °F 64.9 °F 78% 30.08 in 8.0 mi NE 4.6 mph - 0.00 in Rain Light Rain
8:53 PM 70.0 °F 64.9 °F 84% 30.09 in 10.0 mi NNE 6.9 mph - 0.00 in Rain Light Rain
9:53 PM 70.0 °F 66.0 °F 87% 30.10 in 10.0 mi North 6.9 mph - 0.00 in   Overcast
10:07 PM 69.8 °F 66.2 °F 88% 30.10 in 10.0 mi ENE 8.1 mph - N/A   Overcast
10:20 PM 69.8 °F 66.2 °F 88% 30.10 in 7.0 mi NE 10.4 mph - 0.00 in Rain Light Rain
10:53 PM 68.0 °F 64.9 °F 90% 30.08 in 10.0 mi NNW 3.5 mph - 0.00 in   Scattered Clouds
11:53 PM 66.9 °F 64.9 °F 93% 30.07 in 10.0 mi Calm Calm - N/A   Clear